FW4667 Weather Reports


time (UTC)temp
C
wind
direction
speed
KPH
gust
KPH
rain 1hr
cm
rain 24hr
cm
rain mn
cm
humidity
%
barometer
mb
20260506200955 11 281 6.4 12.9 0.00 0.00 0.00 90 1024.0
20260506200453 11 265 8.0 17.7 0.00 0.00 0.00 90 1024.0
20260506195952 11 274 8.0 17.7 0.00 0.00 0.00 90 1024.0
20260506195451 11 283 8.0 14.5 0.00 0.00 0.00 90 1023.9
20260506194945 11 275 6.4 14.5 0.00 0.00 0.00 90 1023.9
20260506194440 11 273 8.0 14.5 0.00 0.00 0.00 91 1023.9
20260506193934 11 278 6.4 12.9 0.00 0.00 0.00 91 1023.9
20260506193429 11 274 8.0 16.1 0.00 0.00 0.00 91 1023.8
20260506192926 11 295 8.0 16.1 0.00 0.00 0.00 92 1023.8
20260506192427 11 283 4.8 14.5 0.00 0.00 0.00 92 1023.8
20260506191927 11 296 8.0 14.5 0.00 0.00 0.00 93 1023.8
20260506190423 11 299 11.3 17.7 0.00 0.00 0.00 93 1023.6
20260506185422 10 273 6.4 16.1 0.00 0.00 0.00 93 1023.6
20260506184920 11 286 8.0 16.1 0.00 0.00 0.00 93 1023.7
20260506184422 10 276 11.3 16.1 0.00 0.00 0.00 93 1023.5
20260506183921 10 290 11.3 17.7 0.00 0.00 0.00 93 1023.5
20260506183421 10 276 9.7 19.3 0.00 0.00 0.00 93 1023.6
20260506182920 10 285 9.7 19.3 0.00 0.00 0.00 93 1023.4
20260506182427 10 262 11.3 19.3 0.00 0.00 0.00 93 1023.4
20260506181922 10 281 11.3 19.3 0.00 0.00 0.00 93 1023.5
20260506181422 10 269 9.7 17.7 0.00 0.00 0.00 93 1023.5
20260506180922 10 282 9.7 17.7 0.00 0.00 0.00 93 1023.4
20260506175914 10 290 9.7 17.7 0.00 0.00 0.00 93 1023.5
20260506175414 10 316 9.7 19.3 0.00 0.00 0.00 94 1023.4
20260506174914 10 286 8.0 19.3 0.00 0.00 0.00 94 1023.3
20260506173912 10 278 8.0 16.1 0.00 0.00 0.00 94 1023.2
20260506172911 10 271 6.4 12.9 0.00 0.00 0.00 94 1023.2
20260506172411 10 287 6.4 14.5 0.00 0.00 0.00 94 1023.1
20260506171910 10 261 6.4 14.5 0.00 0.00 0.00 95 1023.0
20260506171411 10 279 4.8 14.5 0.00 0.00 0.00 94 1023.1
20260506170907 10 291 1.6 8.0 0.00 0.00 0.00 95 1023.0
20260506170407 10 272 0.0 6.4 0.00 0.00 0.00 95 1022.9
20260506165906 10 253 1.6 8.0 0.00 0.00 0.00 95 1022.7
20260506165406 10 253 4.8 9.7 0.00 0.00 0.00 95 1022.7
20260506164407 10 288 8.0 14.5 0.00 0.00 0.00 94 1022.9
20260506163908 10 304 8.0 16.1 0.00 0.00 0.00 95 1022.9
20260506163406 10 262 8.0 16.1 0.00 0.00 0.00 95 1022.9
20260506162906 10 301 8.0 12.9 0.00 0.00 0.00 95 1022.8
20260506162404 10 289 8.0 12.9 0.00 0.00 0.00 95 1022.8
20260506161903 10 293 8.0 16.1 0.00 0.00 0.00 95 1022.9
20260506161404 10 290 8.0 16.1 0.00 0.00 0.00 95 1022.9
20260506160904 10 286 8.0 12.9 0.00 0.00 0.00 95 1023.1
20260506160404 10 309 6.4 11.3 0.00 0.00 0.00 95 1023.1
20260506155910 10 312 6.4 8.0 0.00 0.00 0.00 95 1023.1
20260506155402 10 315 8.0 9.7 0.00 0.00 0.00 95 1023.1
20260506154403 10 331 6.4 8.0 0.00 0.00 0.00 95 1022.9
20260506153907 10 303 6.4 9.7 0.00 0.00 0.00 95 1023.1
20260506153406 10 354 8.0 9.7 0.00 0.00 0.00 95 1023.1
20260506152404 10 329 4.8 8.0 0.00 0.00 0.00 95 1022.8
20260506151903 10 310 4.8 6.4 0.00 0.00 0.00 95 1022.7
20260506151403 10 304 4.8 6.4 0.00 0.00 0.00 95 1022.5
20260506150903 10 321 4.8 4.8 0.00 0.00 0.00 95 1022.4
20260506145905 10 41 4.8 6.4 0.00 0.00 0.00 95 1022.3
20260506144904 10 59 4.8 6.4 0.00 0.00 0.00 95 1022.3
20260506144406 10 64 3.2 6.4 0.00 0.00 0.00 95 1022.3
20260506143904 10 65 4.8 6.4 0.00 0.00 0.00 95 1022.4
20260506143403 10 65 4.8 6.4 0.00 0.00 0.00 95 1022.5
20260506142859 10 65 3.2 6.4 0.00 0.00 0.00 94 1022.5
20260506142401 10 101 0.0 3.2 0.00 0.00 0.00 94 1022.5
20260506141858 10 114 0.0 1.6 0.00 0.00 0.00 95 1022.5
20260506141358 10 114 1.6 4.8 0.00 0.00 0.00 94 1022.6
20260506140858 10 114 3.2 8.0 0.00 0.00 0.00 94 1022.3
20260506140356 10 84 4.8 8.0 0.00 0.00 0.00 94 1022.2
20260506135854 10 109 3.2 6.4 0.00 0.00 0.00 94 1022.1
20260506135358 10 82 1.6 4.8 0.00 0.00 0.00 94 1022.2
20260506134852 10 116 1.6 3.2 0.00 0.00 0.00 94 1022.2
20260506134350 10 107 3.2 4.8 0.00 0.00 0.00 94 1022.1
20260506133850 10 107 3.2 4.8 0.00 0.00 0.00 94 1022.1
20260506133350 10 117 3.2 4.8 0.00 0.00 0.00 94 1022.0
20260506132847 10 122 3.2 4.8 0.00 0.00 0.00 94 1022.0
20260506132346 10 115 3.2 4.8 0.00 0.00 0.00 93 1022.1
20260506131844 10 115 3.2 3.2 0.00 0.00 0.00 93 1022.0
20260506131342 10 115 1.6 3.2 0.00 0.00 0.00 93 1021.9
20260506130843 10 78 1.6 4.8 0.00 0.00 0.00 93 1022.0
20260506130342 10 78 1.6 4.8 0.00 0.00 0.00 93 1021.9
20260506125340 10 58 1.6 3.2 0.00 0.00 0.00 93 1022.1
20260506124836 10 70 1.6 6.4 0.00 0.00 0.00 93 1021.9
20260506124334 10 63 3.2 6.4 0.00 0.00 0.00 93 1021.8
20260506123835 10 287 1.6 4.8 0.00 0.00 0.00 93 1022.0
20260506123334 10 285 1.6 4.8 0.00 0.00 0.00 93 1022.1
20260506122834 10 282 0.0 3.2 0.00 0.00 0.00 93 1022.0
20260506122336 10 44 0.0 1.6 0.00 0.00 0.00 93 1021.9
20260506121834 10 44 0.0 1.6 0.00 0.00 0.00 93 1021.8
20260506121331 10 44 0.0 3.2 0.00 0.00 0.00 93 1021.8
20260506120832 10 44 3.2 6.4 0.00 0.00 0.00 93 1022.0
20260506120329 10 65 4.8 8.0 0.00 0.00 0.00 93 1021.9
20260506115828 10 67 4.8 8.0 0.00 0.00 0.00 93 1021.7
20260506115326 10 63 3.2 6.4 0.00 0.00 0.00 93 1021.7
20260506114827 10 46 3.2 4.8 0.00 0.00 0.00 93 1021.9
20260506114323 10 49 3.2 4.8 0.00 0.00 0.00 93 1021.8
20260506113322 10 49 4.8 4.8 0.00 0.00 0.00 93 1021.7
20260506112821 10 49 3.2 4.8 0.00 0.00 0.00 93 1021.7
20260506112323 10 49 1.6 4.8 0.00 0.00 0.00 92 1021.6
20260506111816 10 208 0.0 3.2 0.00 0.00 0.00 93 1021.5
20260506111315 10 208 0.0 0.0 0.00 0.00 0.00 93 1021.4
20260506110310 10 208 0.0 1.6 0.00 0.00 0.00 93 1021.4
20260506105810 10 208 1.6 3.2 0.00 0.00 0.00 93 1021.2
20260506105309 10 208 1.6 3.2 0.00 0.00 0.00 93 1021.2
20260506104809 10 140 1.6 3.2 0.00 0.00 0.00 93 1021.1
20260506104305 10 140 1.6 1.6 0.00 0.00 0.00 93 1021.0
20260506103304 10 140 3.2 3.2 0.00 0.00 0.00 93 1021.0
20260506102804 10 139 3.2 6.4 0.00 0.00 0.00 92 1020.8
20260506102305 10 137 4.8 6.4 0.00 0.00 0.00 92 1020.8
20260506101803 10 132 4.8 6.4 0.00 0.00 0.00 92 1020.8
20260506100801 10 120 4.8 6.4 0.00 0.00 0.00 92 1020.8
20260506100301 10 131 4.8 6.4 0.00 0.00 0.00 92 1020.8
20260506095759 10 140 3.2 6.4 0.00 0.00 0.00 91 1020.7
20260506095300 10 142 3.2 4.8 0.00 0.00 0.00 91 1020.7
20260506094758 10 143 4.8 8.0 0.00 0.00 0.00 91 1020.7
20260506094256 10 156 4.8 8.0 0.00 0.00 0.00 91 1020.7
20260506093757 10 208 3.2 6.4 0.00 0.00 0.00 91 1020.7
20260506093256 10 152 3.2 6.4 0.00 0.00 0.00 91 1020.7
20260506092256 10 146 3.2 4.8 0.00 0.00 0.00 91 1020.7
20260506091257 10 146 3.2 6.4 0.00 0.00 0.00 91 1020.7
20260506090756 10 203 1.6 6.4 0.00 0.00 0.00 91 1020.7
20260506085756 10 215 1.6 4.8 0.00 0.00 0.00 91 1020.5
20260506085251 10 268 3.2 6.4 0.00 0.00 0.00 91 1020.6
20260506084747 10 221 3.2 6.4 0.00 0.00 0.00 91 1020.5
20260506084237 10 212 3.2 6.4 0.00 0.00 0.00 91 1020.6
20260506083732 10 274 3.2 8.0 0.00 0.00 0.00 91 1020.4
20260506083227 10 264 3.2 8.0 0.00 0.00 0.00 91 1020.5
20260506082719 10 249 1.6 4.8 0.00 0.00 0.00 91 1020.5
20260506082213 10 262 1.6 4.8 0.00 0.00 0.00 91 1020.4
20260506081710 10 235 1.6 4.8 0.00 0.00 0.00 90 1020.4
20260506081201 10 203 1.6 4.8 0.00 0.00 0.00 90 1020.3
20260506080153 10 224 1.6 4.8 0.00 0.00 0.00 90 1020.3
20260506073114 10 193 1.6 6.4 0.00 0.00 0.00 90 1019.7
20260506072607 10 122 3.2 11.3 0.00 0.00 0.00 90 1019.8
20260506072102 10 284 6.4 12.9 0.00 0.00 0.00 90 1019.8
20260506071603 11 256 9.7 12.9 0.00 0.00 0.00 90 1019.6
20260506071101 11 252 9.7 16.1 0.00 0.00 0.00 90 1019.6
20260506070603 11 269 9.7 16.1 0.00 0.00 0.00 90 1019.6
20260506062053 11 273 14.5 25.7 0.00 0.00 0.00 89 1019.4
20260506061552 11 304 12.9 25.7 0.00 0.00 0.00 89 1019.4
20260506061049 11 275 12.9 22.5 0.00 0.00 0.00 89 1019.2
20260506051042 11 257 16.1 25.7 0.00 0.00 0.00 88 1019.2
20260506050541 11 293 14.5 25.7 0.00 0.00 0.00 88 1019.1
20260506045040 11 283 14.5 24.1 0.00 0.00 0.00 88 1019.0
20260506044035 11 278 14.5 20.9 0.00 0.00 0.00 87 1019.0
20260506043537 11 285 12.9 19.3 0.00 0.00 0.00 87 1019.0
20260506043037 11 266 11.3 19.3 0.00 0.00 0.00 87 1018.9
20260506042534 12 275 11.3 17.7 0.00 0.00 0.00 87 1018.9
20260506042035 12 289 11.3 17.7 0.00 0.00 0.00 87 1018.7
20260506041535 12 261 9.7 16.1 0.00 0.00 0.00 86 1018.6
20260506041035 12 278 9.7 14.5 0.00 0.00 0.00 86 1018.6
20260506040535 12 257 8.0 14.5 0.00 0.00 0.00 86 1018.4
20260506035535 12 293 9.7 17.7 0.00 0.00 0.00 85 1018.4
20260506035035 12 266 9.7 17.7 0.00 0.00 0.00 85 1018.5
20260506034535 12 278 9.7 14.5 0.00 0.00 0.00 85 1018.4
20260506033535 12 277 8.0 12.9 0.00 0.00 0.00 84 1018.3
20260506033034 13 281 9.7 14.5 0.00 0.00 0.00 84 1018.2
20260506032531 13 262 9.7 16.1 0.00 0.00 0.00 84 1018.1
20260506031531 13 286 9.7 16.1 0.00 0.00 0.00 83 1018.2
20260506031033 13 288 9.7 17.7 0.00 0.00 0.00 83 1018.3
20260506030031 13 268 11.3 17.7 0.00 0.00 0.00 82 1018.3
20260506025529 13 296 9.7 17.7 0.00 0.00 0.00 81 1018.2
20260506025029 14 278 9.7 16.1 0.00 0.00 0.00 81 1018.3
20260506024530 14 272 9.7 16.1 0.00 0.00 0.00 81 1018.3
20260506024033 14 284 8.0 14.5 0.00 0.00 0.00 80 1018.1
20260506023529 14 278 8.0 16.1 0.00 0.00 0.00 80 1018.1
20260506023029 14 279 8.0 16.1 0.00 0.00 0.00 80 1018.1
20260506022529 14 287 9.7 16.1 0.00 0.00 0.00 80 1018.2
20260506021531 15 257 9.7 16.1 0.00 0.00 0.00 80 1018.2
20260506021030 15 291 8.0 17.7 0.00 0.00 0.00 79 1018.2
20260506020027 15 282 11.3 19.3 0.00 0.00 0.00 79 1018.1
20260506015526 15 305 11.3 19.3 0.00 0.00 0.00 79 1018.1
20260506015028 15 284 11.3 19.3 0.00 0.00 0.00 79 1018.1
20260506014528 15 293 11.3 19.3 0.00 0.00 0.00 78 1018.2
20260506014027 15 259 12.9 22.5 0.00 0.00 0.00 79 1018.2
20260506013527 15 245 12.9 22.5 0.00 0.00 0.00 79 1018.3
20260506013027 15 283 11.3 22.5 0.00 0.00 0.00 79 1018.1
20260506012526 15 270 11.3 22.5 0.00 0.00 0.00 78 1018.3
20260506012027 15 248 12.9 22.5 0.00 0.00 0.00 79 1018.2
20260506011526 15 277 12.9 22.5 0.00 0.00 0.00 78 1018.2
20260506011026 15 262 12.9 20.9 0.00 0.00 0.00 78 1018.3
20260506010026 15 267 11.3 19.3 0.00 0.00 0.00 77 1018.3
20260506005027 15 267 8.0 16.1 0.00 0.00 0.00 78 1018.3
20260506004527 15 77 9.7 19.3 0.00 0.00 0.00 79 1018.3
20260506004020 15 283 9.7 19.3 0.00 0.00 0.00 77 1018.4
20260506003521 16 260 6.4 14.5 0.00 0.00 0.00 78 1018.4
20260506003023 16 295 6.4 16.1 0.00 0.00 0.00 78 1018.4
20260506002522 16 248 6.4 16.1 0.00 0.00 0.00 77 1018.3
20260506002021 16 312 8.0 16.1 0.00 0.00 0.00 79 1018.4
20260506001521 15 273 8.0 16.1 0.00 0.00 0.00 78 1018.3
20260506001018 16 275 8.0 16.1 0.00 0.00 0.00 79 1018.5
20260505235519 15 301 6.4 17.7 0.00 0.00 0.00 79 1018.6
20260505235018 15 288 6.4 12.9 0.00 0.00 0.00 80 1018.7
20260505233519 15 228 11.3 16.1 0.00 0.00 0.00 81 1018.7
20260505232519 15 357 9.7 14.5 0.00 0.00 0.00 82 1018.8
20260505232019 15 345 9.7 12.9 0.00 0.00 0.00 83 1018.8
20260505231524 15 354 9.7 14.5 0.00 0.00 0.00 83 1018.8
20260505231015 15 344 11.3 14.5 0.00 0.00 0.00 84 1018.8
20260505230510 14 343 9.7 12.9 0.00 0.00 0.00 83 1018.9
20260505230003 15 331 9.7 14.5 0.00 0.00 0.00 83 1019.0
20260505225459 14 326 11.3 16.1 0.00 0.00 0.00 83 1019.0
20260505224953 14 315 12.9 16.1 0.00 0.00 0.00 84 1019.1
20260505224447 14 323 12.9 16.1 0.00 0.00 0.00 85 1019.1
20260505223938 13 335 14.5 17.7 0.00 0.00 0.00 85 1019.2
20260505223442 13 326 14.5 17.7 0.00 0.00 0.00 85 1019.2
20260505222928 14 323 14.5 17.7 0.00 0.00 0.00 85 1019.2
20260505222421 13 313 14.5 17.7 0.00 0.00 0.00 86 1019.2
20260505221915 13 335 14.5 16.1 0.00 0.00 0.00 86 1019.2
20260505221407 13 316 14.5 17.7 0.00 0.00 0.00 86 1019.3
20260505220906 13 333 12.9 16.1 0.00 0.00 0.00 86 1019.3
20260505220405 13 329 12.9 16.1 0.00 0.00 0.00 86 1019.4
20260505215904 13 347 12.9 17.7 0.00 0.00 0.00 87 1019.5
20260505215401 13 321 12.9 17.7 0.00 0.00 0.00 87 1019.5
20260505214901 13 321 12.9 16.1 0.00 0.00 0.00 87 1019.6
20260505214402 13 0 12.9 16.1 0.00 0.00 0.00 88 1019.6
20260505213401 13 336 12.9 16.1 0.00 0.00 0.00 88 1019.7
20260505212858 13 359 12.9 16.1 0.00 0.00 0.00 87 1019.7
20260505212358 13 332 14.5 16.1 0.00 0.00 0.00 88 1019.8
20260505211858 13 313 12.9 16.1 0.00 0.00 0.00 88 1019.8
20260505211357 13 342 12.9 16.1 0.00 0.00 0.00 88 1019.8
20260505210858 13 328 12.9 16.1 0.00 0.00 0.00 88 1019.8
20260505210357 13 331 12.9 16.1 0.00 0.00 0.00 88 1019.8
20260505205857 13 346 12.9 14.5 0.00 0.00 0.00 88 1019.8
20260505205357 13 332 11.3 14.5 0.00 0.00 0.00 88 1019.7
20260505204856 13 324 11.3 14.5 0.00 0.00 0.00 88 1019.9
20260505204400 13 331 11.3 14.5 0.00 0.00 0.00 88 1019.9
20260505203857 12 341 11.3 14.5 0.00 0.00 0.00 88 1019.9
20260505202858 12 319 9.7 12.9 0.00 0.00 0.00 89 1019.9
20260505202357 12 321 9.7 12.9 0.00 0.00 0.00 88 1019.9
20260505201855 12 335 9.7 11.3 0.00 0.00 0.00 89 1019.9